Probability
0 0 0 0 0 0 0 0 0 0 0 0 3 3 0 3 13 6 3 3 0 0 0 0 0 0 0 0 0 0 0 0 0 0 0 0 0 0 0 0 0 0 0
0 0 0 0 0 0 0 0 0 0 0 0 0 0 3 3 0 10 3 3 3 0 0 0 0 0 0 0 0 0 0 0 0 0 0 0 0 0 0 0 0 0 0
0 0 0 0 0 0 0 0 0 0 0 0 0 0 0 3 0 0 3 3 0 3 3 0 0 0 0 0 0 0 0 0 0 0 0 0 0 0 0 0 0 0 0
0 0 0 0 0 0 0 0 0 0 0 0 0 0 0 0 3 3 3 3 6 3 3 3 0 0 0 0 0 0 0 0 0 0 0 0 0 0 0 0 0 0 0
0 0 0 0 0 0 0 0 0 0 0 0 0 0 0 0 0 0 3 3 6 3 3 3 0 0 0 0 0 0 0 0 0 0 0 0 0 0 0 0 0 0 0
0 0 0 0 0 0 0 0 0 0 0 0 0 0 0 0 0 3 3 3 0 0 0 0 0 0 0 0 0 0 0 0 0 0 0 0 0 0 0 0 0 0 0
0 0 0 0 0 0 0 0 0 0 0 0 0 0 0 0 0 3 3 0 0 0 0 0 0 0 0 0 0 0 0 0 0 0 0 0 0 0 0 0 0 0 0
0 0 0 0 0 0 0 0 0 0 0 0 0 0 0 0 0 0 3 0 0 0 0 0 0 0 0 0 0 0 0 0 0 0 0 0 0 0 0 0 0 0 0
0 0 0 0 0 0 0 0 0 0 0 0 0 0 0 0 0 0 0 0 0 0 0 0 0 0 0 0 0 0 0 0 0 0 0 0 0 0 0 0 0 0 0
0 0 0 0 0 0 0 0 0 0 0 0 0 0 0 0 0 0 0 0 0 0 0 0 0 0 0 0 0 0 0 0 0 0 0 0 0 0 0 0 0 0 0
0 0 0 0 0 0 0 0 0 0 0 0 0 0 0 0 0 0 0 0 0 0 0 0 0 0 0 0 0 0 0 0 0 0 0 0 0 0 0 0 0 0 0
0 0 0 0 0 0 0 0 0 0 0 0 0 0 0 0 0 0 0 0 0 0 0 0 0 0 0 0 0 0 0 0 0 0 0 0 0 0 0 0 0 0 0
0 0 0 0 0 0 0 0 0 0 0 0 0 0 0 0 0 0 0 0 0 0 0 0 0 0 0 0 0 0 0 0 0 0 0 0 0 0 0 0 0 0 0
0 0 0 0 0 0 0 0 0 0 0 0 0 0 0 0 0 0 0 0 0 0 0 0 0 0 0 0 0 0 0 0 0 0 0 0 0 0 0 0 0 0 0
0 0 0 0 0 0 0 0 0 0 0 0 0 0 0 0 0 0 0 0 0 0 0 0 0 0 0 0 0 0 0 0 0 0 0 0 0 0 0 0 0 0 0
0 0 0 0 0 0 0 0 0 0 0 0 0 0 0 0 0 0 0 0 0 0 0 0 0 0 0 0 0 0 0 0 0 0 0 0 0 0 0 0 0 0 0
0 0 0 0 0 0 0 0 0 0 0 0 0 0 0 0 0 0 0 0 0 0 0 0 0 0 0 0 0 0 0 0 0 0 0 0 0 0 0 0 0 0 0
0 0 0 0 0 0 0 0 0 0 0 0 0 0 0 0 0 0 0 0 0 0 0 0 0 0 0 0 0 0 0 0 0 0 0 0 0 0 0 0 0 0 0
0 0 0 0 0 0 0 0 0 0 0 0 0 0 0 0 0 0 0 0 0 0 0 0 0 0 0 0 0 0 0 0 0 0 0 0 0 0 0 0 0 0 0
0 0 0 0 0 0 0 0 0 0 0 0 0 0 0 0 0 0 0 0 0 0 0 0 0 0 0 0 0 0 0 0 0 0 0 0 0 0 0 0 0 0 0
0 0 0 0 0 0 0 0 0 0 0 0 0 0 0 0 0 0 0 0 0 0 0 0 0 0 0 0 0 0 0 0 0 0 0 0 0 0 0 0 0 0 0
0 0 0 0 0 0 0 0 0 0 0 0 0 0 0 0 0 0 0 0 0 0 0 0 0 0 0 0 0 0 0 0 0 0 0 0 0 0 0 0 0 0 0
0 0 0 0 0 0 0 0 0 0 0 0 0 0 0 0 0 0 0 0 0 0 0 0 0 0 0 0 0 0 0 0 0 0 0 0 0 0 0 0 0 0 0
0 0 0 0 0 0 0 0 0 0 0 0 0 0 0 0 0 0 0 0 0 0 0 0 0 0 0 0 0 0 0 0 0 0 0 0 0 0 0 0 0 0 0
0 0 0 0 0 0 0 0 0 0 0 0 0 0 0 0 0 0 0 0 0 0 0 0 0 0 0 0 0 0 0 0 0 0 0 0 0 0 0 0 0 0 0
0 0 0 0 0 0 0 0 0 0 0 0 0 0 0 0 0 0 0 0 0 0 0 0 0 0 0 0 0 0 0 0 0 0 0 0 0 0 0 0 0 0 0
Height
5853 5853 5852 5852 5852 5852 5853 5854 5855 5856 5857 5858 5858 5860 5860 5861 5862 5862 5863 5864 5865 5866 5867 5867 5868 5868 5869 5870 5871 5872 5873 5873 5875 5876 5877 5877 5878 5879 5881 5882 5884 5885 5886
5842 5841 5841 5840 5840 5840 5841 5842 5843 5845 5846 5848 5849 5851 5852 5853 5854 5856 5856 5857 5859 5859 5859 5861 5861 5861 5862 5863 5864 5865 5866 5867 5868 5870 5871 5872 5874 5874 5875 5876 5878 5879 5880
5831 5830 5828 5827 5827 5827 5828 5829 5831 5833 5835 5837 5839 5841 5844 5845 5846 5848 5849 5850 5851 5852 5853 5854 5854 5854 5855 5856 5857 5858 5860 5861 5862 5863 5865 5866 5867 5868 5869 5870 5871 5872 5874
5820 5818 5817 5816 5815 5815 5816 5817 5818 5820 5823 5826 5829 5831 5834 5836 5838 5839 5841 5842 5843 5845 5846 5847 5848 5847 5848 5849 5849 5851 5852 5854 5855 5856 5858 5859 5860 5861 5863 5864 5865 5866 5867
5809 5807 5805 5804 5803 5803 5804 5805 5806 5809 5811 5815 5818 5821 5824 5827 5829 5831 5833 5834 5835 5837 5839 5840 5840 5841 5841 5842 5842 5844 5845 5846 5847 5849 5850 5851 5853 5854 5855 5856 5858 5859 5860
5799 5797 5795 5793 5792 5791 5792 5794 5795 5798 5801 5804 5808 5811 5815 5818 5820 5822 5824 5826 5828 5829 5831 5832 5832 5833 5834 5834 5835 5836 5837 5838 5839 5841 5842 5844 5845 5846 5847 5849 5850 5851 5853
5793 5790 5788 5785 5784 5783 5783 5784 5786 5789 5792 5795 5798 5802 5805 5809 5811 5814 5816 5818 5820 5822 5823 5824 5824 5825 5826 5826 5827 5828 5829 5830 5831 5833 5834 5835 5837 5838 5839 5840 5841 5843 5845
5788 5785 5783 5780 5778 5777 5777 5778 5780 5782 5785 5788 5791 5794 5797 5800 5803 5806 5808 5810 5812 5813 5815 5816 5816 5817 5818 5818 5819 5819 5820 5822 5823 5824 5826 5827 5828 5830 5831 5832 5833 5834 5836
5786 5783 5780 5777 5775 5773 5773 5774 5775 5777 5779 5782 5785 5787 5790 5792 5795 5798 5800 5802 5804 5806 5807 5807 5808 5809 5809 5810 5810 5811 5812 5813 5814 5816 5817 5818 5820 5821 5822 5823 5824 5826 5828
5785 5782 5779 5776 5774 5773 5772 5772 5772 5774 5775 5777 5780 5782 5784 5786 5789 5791 5793 5795 5796 5798 5799 5799 5799 5800 5800 5801 5802 5803 5803 5804 5805 5807 5808 5809 5811 5812 5813 5815 5816 5817 5819
5786 5783 5780 5777 5775 5774 5773 5772 5772 5772 5773 5775 5777 5778 5780 5782 5783 5785 5787 5788 5789 5790 5791 5791 5791 5792 5792 5792 5793 5793 5794 5796 5797 5798 5799 5801 5802 5804 5805 5806 5808 5809 5810
5788 5785 5782 5780 5778 5776 5775 5774 5774 5773 5773 5774 5775 5776 5778 5779 5780 5781 5782 5783 5784 5784 5784 5784 5784 5784 5784 5784 5785 5785 5786 5788 5789 5790 5791 5793 5794 5795 5797 5798 5799 5801 5802
5791 5788 5786 5783 5781 5779 5778 5777 5776 5776 5775 5775 5776 5776 5777 5777 5778 5778 5779 5779 5779 5779 5779 5779 5779 5779 5778 5778 5779 5779 5780 5781 5782 5783 5784 5785 5787 5788 5789 5790 5792 5794 5795
5796 5793 5790 5788 5786 5784 5782 5781 5780 5780 5779 5779 5778 5778 5777 5777 5777 5777 5777 5777 5776 5776 5776 5775 5775 5774 5774 5774 5774 5775 5775 5776 5776 5777 5778 5779 5781 5781 5783 5784 5786 5787 5789
5801 5798 5796 5793 5791 5789 5788 5786 5785 5784 5783 5782 5781 5780 5779 5779 5778 5777 5777 5776 5775 5774 5773 5772 5772 5772 5771 5771 5771 5771 5771 5771 5771 5772 5772 5773 5774 5775 5777 5778 5780 5782 5783
5806 5803 5801 5799 5797 5795 5793 5791 5789 5788 5787 5786 5784 5783 5782 5780 5779 5778 5777 5775 5774 5773 5771 5770 5769 5769 5768 5767 5767 5767 5767 5766 5766 5767 5767 5768 5769 5770 5771 5773 5775 5777 5778
5812 5809 5807 5804 5802 5800 5798 5796 5794 5793 5791 5789 5787 5786 5784 5783 5781 5779 5777 5775 5774 5772 5770 5768 5767 5766 5764 5764 5763 5762 5762 5762 5762 5762 5762 5762 5763 5764 5766 5768 5769 5771 5773
5817 5815 5812 5810 5808 5806 5804 5801 5799 5797 5795 5793 5791 5789 5787 5785 5783 5781 5779 5777 5774 5772 5769 5767 5765 5763 5761 5760 5759 5758 5757 5757 5756 5756 5756 5757 5758 5759 5761 5762 5764 5766 5768
5823 5820 5818 5816 5813 5811 5809 5807 5804 5802 5799 5797 5794 5792 5790 5788 5785 5783 5780 5778 5775 5772 5769 5766 5763 5761 5758 5756 5755 5753 5752 5751 5751 5750 5750 5751 5752 5754 5756 5758 5759 5761 5763
5828 5825 5823 5821 5819 5816 5814 5812 5809 5807 5804 5801 5798 5796 5794 5791 5788 5785 5782 5779 5776 5772 5769 5765 5762 5758 5756 5753 5751 5749 5748 5747 5746 5745 5745 5746 5747 5749 5751 5753 5755 5757 5759
5832 5830 5828 5826 5824 5822 5819 5817 5814 5811 5809 5806 5803 5800 5797 5795 5791 5788 5785 5781 5777 5773 5769 5765 5761 5757 5754 5751 5749 5747 5745 5744 5742 5742 5742 5742 5743 5745 5747 5749 5751 5753 5755
5837 5835 5833 5830 5828 5826 5824 5821 5819 5816 5813 5810 5807 5804 5801 5798 5795 5791 5787 5783 5779 5775 5771 5766 5762 5757 5754 5750 5748 5746 5744 5742 5741 5740 5740 5741 5742 5743 5744 5746 5748 5750 5752
5841 5838 5836 5834 5832 5830 5828 5825 5823 5820 5817 5814 5811 5808 5805 5801 5798 5794 5790 5785 5781 5777 5772 5768 5763 5759 5755 5752 5749 5747 5745 5743 5741 5740 5740 5741 5741 5742 5744 5745 5747 5748 5750
5844 5842 5840 5838 5836 5833 5831 5829 5826 5823 5821 5818 5814 5811 5808 5804 5800 5797 5792 5788 5784 5779 5775 5771 5766 5762 5758 5755 5752 5749 5747 5745 5743 5742 5742 5742 5743 5744 5744 5745 5747 5748 5750
5847 5845 5842 5840 5838 5836 5834 5832 5829 5827 5824 5821 5817 5814 5811 5807 5803 5800 5795 5791 5787 5783 5779 5775 5770 5766 5763 5759 5756 5753 5751 5749 5747 5746 5746 5745 5746 5746 5747 5747 5748 5749 5750
5849 5847 5845 5843 5841 5838 5836 5834 5832 5829 5826 5824 5820 5817 5814 5810 5806 5803 5799 5795 5791 5787 5783 5779 5775 5771 5768 5764 5762 5759 5757 5754 5753 5751 5750 5750 5749 5749 5750 5750 5751 5751 5752
Wind_Speed
42 43 44 44 44 45 44 43 41 39 39 39 37 35 34 32 31 29 28 27 27 28 27 27 27 27 26 26 25 24 23 22 22 22 22 22 21 21 20 20 20 19 18
43 44 45 46 46 46 46 46 44 44 42 41 41 39 37 35 34 32 31 30 30 30 30 29 30 30 29 28 27 27 25 24 23 23 23 23 23 24 23 23 23 22 21
43 44 46 47 48 48 47 46 45 45 45 44 42 41 40 39 37 36 34 33 33 32 31 30 30 30 31 30 30 30 29 27 26 25 25 24 24 25 25 25 26 25 24
41 42 43 44 45 45 45 46 44 43 43 43 42 41 41 39 39 38 37 36 35 34 33 30 30 30 29 30 31 31 31 29 28 28 27 27 27 26 26 27 27 28 28
38 38 38 39 41 41 41 42 42 41 40 40 40 40 39 39 38 38 38 38 37 35 34 32 31 30 29 30 28 29 30 31 31 30 30 29 29 28 28 29 29 29 29
32 31 32 33 34 35 36 36 36 37 37 37 37 38 38 36 36 36 36 36 35 35 34 33 31 30 30 30 29 28 28 29 31 31 31 31 31 30 31 30 31 31 31
25 25 24 24 24 26 27 28 29 29 31 32 33 34 35 34 33 33 33 33 33 32 32 32 31 30 30 29 29 30 29 29 30 31 32 33 33 33 33 33 33 33 32
19 18 18 18 16 16 18 20 22 22 25 26 28 29 30 30 30 30 30 30 30 30 31 32 32 32 31 30 31 30 29 30 30 30 30 31 32 32 33 34 34 35 34
13 12 13 11 10 10 10 12 16 17 20 21 22 22 23 25 26 27 28 28 29 30 31 32 33 33 32 31 32 32 32 31 31 31 31 31 33 32 32 32 33 34 35
12 12 12 10 8 7 5 7 9 10 12 15 17 17 18 20 22 23 24 26 27 28 30 31 32 31 31 31 31 31 31 33 33 32 31 32 32 32 32 32 33 33 33
14 13 12 11 9 7 6 5 3 3 5 8 10 12 14 15 16 18 20 21 23 24 25 26 27 27 28 28 29 29 29 30 30 30 30 30 30 31 32 33 33 33 33
16 15 14 13 10 9 8 7 6 4 2 2 4 6 8 10 11 12 14 16 17 18 19 20 21 22 22 23 23 24 25 25 25 26 27 28 29 31 31 30 30 30 29
19 17 16 15 14 13 12 11 10 9 7 6 4 2 2 3 5 7 8 9 11 12 13 14 15 16 17 17 17 18 19 20 21 23 24 24 25 26 26 26 26 26 26
21 20 19 18 18 18 17 16 14 13 12 11 10 8 7 6 5 5 5 6 6 7 8 9 10 10 10 12 13 15 16 17 19 20 20 21 21 22 21 22 22 22 22
21 21 21 21 20 19 19 19 18 17 15 14 14 13 11 10 9 8 7 7 6 6 7 7 8 9 9 10 11 12 13 14 15 16 16 17 18 18 18 18 18 18 19
23 22 21 21 21 20 19 19 19 18 17 16 16 15 14 13 13 11 10 9 9 8 8 7 8 9 10 10 11 11 12 12 13 14 14 15 16 16 17 18 18 18 18
23 23 23 23 22 22 21 21 20 19 18 18 17 16 16 15 15 14 13 12 12 11 10 9 9 10 10 11 11 11 12 13 14 15 15 16 16 16 17 17 17 17 17
22 22 22 22 21 21 21 21 21 21 20 19 18 18 17 17 16 15 15 14 14 14 13 12 11 10 10 11 11 12 12 13 13 14 15 15 15 14 15 15 15 15 15
21 21 21 21 21 21 21 21 21 22 22 21 20 20 19 19 19 18 17 17 17 16 15 14 13 12 11 10 10 11 12 12 12 13 13 14 14 14 13 13 13 14 14
19 20 20 20 21 21 21 21 22 22 22 22 22 22 21 21 21 21 20 20 19 19 18 17 15 14 12 10 9 9 9 10 10 10 10 11 12 12 12 12 12 13 13
18 18 19 19 20 20 20 20 21 21 22 22 22 22 22 22 22 22 21 21 21 21 20 20 18 16 14 11 10 9 8 7 6 5 5 5 7 8 9 10 10 11 11
16 17 17 17 18 18 19 19 19 20 20 21 21 21 22 22 22 22 22 22 22 22 22 21 20 19 16 14 12 10 8 7 5 3 1 1 3 4 5 6 7 8 8
15 15 15 16 16 17 17 18 18 19 20 20 21 21 22 22 22 23 23 23 23 23 22 22 22 21 19 16 15 13 12 10 8 6 5 4 4 3 3 4 5 5 6
14 14 14 14 15 15 16 17 18 18 19 20 21 21 21 21 22 22 23 23 23 23 23 22 22 22 20 18 17 16 15 14 12 10 9 8 8 7 7 6 6 5 5
12 13 13 13 13 14 15 15 16 17 18 19 20 21 21 21 21 22 23 23 23 24 23 23 22 22 21 21 20 18 17 16 16 14 13 12 11 10 10 9 8 7 7
10 11 11 12 13 13 13 14 15 16 17 18 19 20 21 21 21 21 22 22 23 23 23 23 23 22 22 22 21 20 19 18 17 16 15 15 14 13 12 12 11 10 10
Wind_Direction
268 267 267 265 264 262 261 260 259 258 257 257 256 255 256 256 256 258 259 257 261 262 263 266 267 263 262 263 264 263 263 263 262 259 259 258 258 256 255 255 255 256 257
270 269 267 266 265 264 264 263 260 259 258 258 257 256 255 257 257 259 260 261 263 264 264 265 266 264 260 259 260 259 259 260 261 259 259 258 257 256 255 255 256 256 257
273 272 271 270 268 266 264 263 261 259 258 257 256 256 256 257 258 258 261 263 263 264 268 266 269 266 261 259 257 254 254 256 258 258 259 259 258 256 255 255 256 257 257
279 276 274 272 270 268 266 264 261 259 257 256 256 256 256 257 258 259 261 262 263 265 266 269 269 264 263 263 260 255 251 251 254 256 256 258 258 257 256 256 257 257 258
283 279 277 274 271 268 266 266 263 259 257 256 256 255 256 257 257 258 259 261 263 264 267 268 270 269 266 266 266 259 254 251 250 251 254 255 256 257 259 258 257 257 257
287 283 281 278 274 271 267 265 264 261 258 258 257 256 255 256 256 257 257 258 261 263 264 265 268 268 268 270 268 265 262 256 251 250 251 252 253 254 257 258 257 256 256
293 292 291 290 283 275 268 263 261 259 257 258 258 257 255 255 256 257 257 257 259 260 260 264 265 268 269 269 266 267 263 261 255 251 251 252 252 253 255 256 256 256 255
307 302 301 300 292 281 271 264 260 255 254 256 257 255 255 255 255 255 256 258 259 259 259 264 268 270 270 269 267 267 265 261 258 254 253 254 254 255 256 256 256 255 254
330 326 322 321 313 300 278 266 262 257 254 252 254 255 256 255 254 255 257 259 260 261 263 266 269 270 270 269 267 266 266 261 258 257 256 257 255 256 257 257 257 256 254
347 347 351 347 341 337 314 288 275 264 258 252 252 255 257 257 257 258 259 261 263 264 266 267 269 268 270 269 267 264 262 259 259 256 255 255 254 254 254 256 255 255 253
9 8 10 15 16 21 18 2 347 293 266 257 255 256 258 261 261 262 263 264 265 266 267 267 269 270 270 269 266 264 261 258 257 255 255 255 255 255 255 254 255 254 251
28 30 32 35 36 34 37 37 48 44 29 307 275 270 270 270 269 268 267 267 268 269 270 270 271 271 270 268 265 261 256 255 256 256 256 255 254 255 253 253 252 252 250
44 45 44 46 50 51 53 56 56 55 54 56 54 28 344 307 292 287 285 282 278 275 276 275 274 271 268 266 262 259 257 255 255 256 255 254 254 253 252 251 251 252 253
50 50 49 51 55 56 57 59 60 60 59 59 57 57 55 42 23 0 340 325 311 300 294 288 282 277 273 266 261 261 261 260 259 257 254 253 253 252 252 252 253 254 253
53 54 56 57 58 58 58 60 60 62 61 60 59 57 55 52 43 34 22 8 351 333 318 305 297 290 284 275 269 266 266 261 257 255 254 252 252 252 252 253 253 253 252
55 57 57 56 57 58 57 57 58 59 58 56 55 52 48 44 39 33 25 17 6 352 336 318 310 304 298 293 283 276 272 270 266 263 260 258 254 253 252 251 252 253 254
56 56 56 57 57 57 56 57 58 57 55 53 51 48 46 42 38 33 29 23 15 5 354 340 327 315 305 297 290 283 279 275 273 271 266 261 258 256 254 253 253 252 253
56 55 56 56 56 56 56 57 56 55 53 51 48 46 44 42 39 36 33 28 23 16 9 358 346 332 321 312 302 292 287 283 279 274 268 263 260 256 252 251 250 250 250
57 57 57 57 57 56 57 57 55 53 51 50 48 47 47 44 42 39 35 31 26 21 15 6 357 347 335 323 313 305 299 292 286 279 270 261 256 253 253 252 251 246 246
57 56 56 57 57 56 55 55 53 52 50 49 48 47 46 44 40 38 34 30 26 23 19 14 7 358 350 342 334 325 317 308 294 281 269 257 247 242 244 245 245 246 245
57 57 57 56 55 54 53 52 50 49 48 47 46 45 43 40 37 34 32 28 26 24 22 19 16 12 8 3 358 351 343 337 325 304 279 255 237 232 232 235 237 238 238
56 56 55 54 52 51 48 47 46 45 44 43 42 40 38 35 33 32 30 28 26 25 24 23 21 20 19 20 19 18 17 15 17 21 6 194 198 209 214 218 219 219 220
51 51 50 49 48 46 44 43 42 41 39 38 37 36 34 32 31 30 29 28 27 26 26 26 27 28 29 32 35 36 37 39 46 58 76 97 110 132 159 179 190 194 196
45 45 44 43 42 41 40 39 38 37 36 34 33 31 30 29 29 29 29 29 29 29 29 31 32 34 36 40 43 45 47 52 59 67 78 88 95 97 105 119 133 139 145
40 39 38 36 35 35 34 34 33 32 31 30 29 28 27 28 29 30 31 32 33 33 34 35 36 38 41 45 48 50 53 57 63 69 74 80 85 90 92 95 103 111 116
31 31 30 29 29 29 28 29 29 29 28 27 26 27 27 28 29 30 32 33 34 36 37 38 40 43 46 48 51 54 57 61 65 68 73 78 82 85 89 91 92 95 99